Theta_e
328 329 330 330 330 329 328 328 329 329 330 329 328 328 329 328 328 327 328 328 326 327 325 327 327 327 328 330 333 332 332 333 333 331 331 331 328 329 332 331 331 332 331 333 330 324 322 319 321 326 329 330 330 330 329 329 331 333 333 334 333 334 334
329 329 328 328 327 328 327 327 327 326 328 329 328 328 327 325 325 326 327 326 325 324 323 323 325 324 328 329 328 328 329 329 330 330 331 330 331 329 330 327 328 330 329 330 331 330 323 318 318 320 320 325 328 328 327 329 330 331 330 329 330 332 332
329 328 327 326 326 327 326 327 326 325 325 326 328 327 325 323 325 326 325 327 326 323 323 324 326 328 328 328 329 329 329 328 328 329 328 329 331 332 330 328 327 328 328 327 329 328 329 325 319 318 322 323 320 323 326 324 325 325 326 327 327 327 331
329 328 326 326 324 326 325 325 325 324 325 325 326 326 325 324 326 326 326 324 326 326 324 323 326 325 326 327 327 327 327 327 327 328 328 329 328 327 327 326 324 325 324 322 325 328 326 324 322 322 323 321 320 320 321 322 322 321 321 323 323 324 326
330 328 326 325 325 325 325 324 323 323 324 325 324 323 324 325 324 325 326 324 323 325 324 325 325 325 326 326 325 325 325 327 327 326 326 326 325 325 325 324 323 324 324 323 323 326 326 324 324 321 318 319 319 318 318 321 320 320 319 319 319 321 323
330 328 327 326 326 324 324 323 322 320 322 322 322 323 325 325 324 325 324 322 321 323 324 324 324 325 324 323 323 323 324 324 324 325 323 325 325 322 321 322 320 319 320 322 323 323 324 326 325 318 318 320 316 316 317 318 316 317 318 318 319 320 320
330 329 327 327 327 325 324 322 321 320 321 322 323 323 324 325 324 325 325 324 323 322 322 323 323 323 324 320 322 323 324 324 324 324 323 324 324 324 323 320 320 318 319 321 322 322 322 321 320 319 318 318 318 315 316 316 316 314 314 317 318 319 320
331 329 327 327 327 325 323 322 321 322 322 323 323 325 325 325 326 326 325 325 325 324 323 323 322 323 323 319 320 322 322 322 321 321 321 323 321 321 322 320 319 318 318 316 318 319 319 322 321 321 319 315 315 315 314 314 313 312 312 314 315 316 318
331 331 329 330 329 327 326 322 321 322 323 323 325 325 326 325 325 325 325 325 325 325 324 322 321 321 323 320 319 321 320 319 320 319 319 320 320 321 321 320 318 316 318 317 317 317 318 321 322 322 319 317 312 309 312 311 312 311 313 310 311 313 315
331 329 328 329 329 329 328 326 323 322 324 324 324 326 326 326 326 325 324 325 326 326 325 323 322 322 322 321 320 320 320 320 319 317 318 318 320 320 319 320 318 317 318 320 318 318 319 320 321 321 319 318 316 311 310 309 310 310 311 311 307 308 312
330 331 330 328 328 327 325 325 326 323 323 324 325 325 326 325 325 325 325 325 326 326 326 324 323 324 323 320 321 319 320 321 320 320 319 318 319 319 320 320 319 316 319 318 318 320 318 318 317 319 318 318 318 313 312 310 310 312 309 311 310 307 309
330 330 330 329 328 326 324 323 324 324 325 324 324 325 324 324 325 325 325 325 325 325 326 325 325 325 324 323 322 321 322 322 319 319 321 321 320 320 319 318 318 317 320 320 320 319 320 319 316 314 315 317 318 319 316 313 310 312 314 309 308 309 308
330 331 331 330 326 324 324 324 324 326 325 324 324 324 324 324 324 325 325 325 325 325 325 325 325 324 325 324 324 322 323 322 320 319 319 320 317 319 319 318 317 317 318 318 318 318 316 318 318 315 316 317 317 319 316 314 311 310 312 310 309 308 309
331 330 330 329 327 326 326 326 326 326 325 326 326 325 324 324 324 325 325 324 324 325 325 325 326 326 325 324 323 323 323 323 321 321 320 319 318 319 317 316 315 316 319 318 317 317 316 315 316 316 316 315 315 317 316 315 310 308 310 313 311 309 311
331 330 330 329 328 327 327 326 328 326 325 326 326 325 324 325 324 325 324 325 325 325 325 325 325 326 324 324 325 324 324 322 322 322 322 320 320 318 319 317 315 316 316 315 316 314 314 314 313 312 312 313 313 314 316 313 310 308 307 311 310 312 311
331 331 330 329 329 327 327 329 328 327 326 325 326 324 324 325 325 325 325 325 325 325 325 326 327 326 325 325 325 325 325 324 323 322 322 322 321 320 320 319 318 318 318 317 316 316 315 315 314 311 312 312 312 313 313 313 312 310 310 311 314 312 312
330 331 330 329 329 329 329 329 328 327 326 326 326 326 326 325 325 325 325 325 325 325 325 326 326 326 325 325 324 324 325 325 325 324 323 322 321 322 322 320 320 320 320 318 317 317 316 316 315 313 313 314 315 315 318 318 318 316 314 312 313 311 313
329 330 330 330 330 330 330 329 327 327 327 326 326 327 327 327 327 326 326 324 325 325 326 326 326 326 328 327 326 326 325 324 325 325 326 325 323 323 322 322 322 322 320 319 319 317 317 316 314 314 313 314 316 318 318 318 318 318 316 314 313 313 314
329 329 329 330 331 330 329 329 329 328 328 326 328 328 327 327 327 327 327 326 325 325 325 325 325 325 326 327 327 327 327 326 325 325 325 324 325 326 325 324 323 323 322 321 321 319 318 316 314 314 313 312 314 316 317 318 318 318 317 315 314 312 314
329 330 329 328 330 330 330 330 329 328 327 327 328 328 328 327 328 327 326 326 326 326 326 326 326 327 326 326 327 326 327 327 326 326 325 325 325 326 326 325 325 324 324 324 322 321 320 319 316 316 315 314 313 315 316 317 317 317 318 317 316 316 314
326 324 325 327 328 329 329 329 328 328 328 328 328 327 327 326 327 327 327 326 327 327 327 326 326 327 328 328 328 326 327 327 326 327 327 326 327 327 326 326 326 325 325 325 325 324 322 321 319 318 319 318 315 313 313 314 314 314 315 315 313 312 313
325 326 326 327 327 327 328 329 328 328 328 328 329 327 327 326 327 326 327 327 327 327 327 328 328 327 327 326 327 326 327 327 327 327 327 326 325 323 323 325 325 326 324 318 308 310 310 311 320 318 318 317 315 314 313 312 312 312 313 313 312 313 312
325 325 325 325 324 326 327 328 329 327 326 326 325 326 326 327 327 328 326 326 328 328 328 328 311 302 304 323 327 325 327 327 326 327 326 325 325 324 324 325 325 319 313 312 310 304 301 301 304 315 321 319 315 313 314 312 310 311 312 311 311 311 310
324 324 324 324 326 326 326 327 325 324 325 324 324 324 325 326 325 326 325 326 326 327 327 317 295 296 297 299 320 326 324 323 324 324 324 325 324 324 327 325 326 321 317 311 313 300 299 299 298 298 298 302 307 314 312 311 311 311 310 310 311 310 308
321 323 324 324 325 325 325 325 325 325 325 326 326 326 325 325 325 326 327 326 326 326 321 296 293 294 295 295 300 320 324 323 323 322 322 321 320 321 321 322 323 324 324 323 322 322 308 298 297 296 295 296 296 296 293 310 312 312 311 309 309 309 309
323 323 323 322 323 323 324 325 325 324 324 325 324 324 324 324 324 325 325 323 321 319 318 291 291 292 293 294 296 305 323 324 322 321 322 321 320 320 319 319 320 320 321 313 317 321 321 319 297 294 295 294 293 294 292 290 295 313 312 310 310 309 307
321 321 322 322 322 322 324 323 323 323 324 323 323 323 325 324 322 321 320 319 318 318 317 294 290 290 292 292 293 299 323 323 323 322 322 323 323 321 320 319 318 319 319 321 320 320 320 320 315 310 308 310 308 302 293 293 293 295 303 311 310 308 309
316 318 319 319 321 321 323 323 323 322 322 321 321 320 319 318 318 318 317 317 316 316 314 290 292 291 291 292 292 297 322 323 321 322 323 323 322 322 321 321 321 319 319 320 315 313 319 318 317 315 313 312 310 309 311 310 310 309 308 309 309 309 308
314 315 315 316 316 316 317 317 317 317 317 317 318 317 317 316 316 315 315 315 314 313 310 290 292 292 292 294 292 319 320 320 319 319 320 321 320 321 321 321 319 319 318 315 300 293 301 316 316 314 311 311 310 307 301 294 292 293 302 307 308 308 307
312 313 313 313 313 314 315 315 316 316 315 315 314 314 315 315 315 314 314 315 315 314 314 296 291 291 292 292 298 315 314 315 315 317 318 319 318 317 316 316 318 317 314 311 297 294 296 298 315 312 311 310 309 308 304 301 293 290 290 290 289 289 289
311 311 312 311 312 313 314 314 314 314 313 312 312 314 314 313 315 315 315 315 315 315 315 300 291 292 293 292 297 317 314 313 313 314 315 316 316 312 305 298 307 315 312 309 291 294 294 305 314 312 312 310 309 308 307 306 304 299 289 290 289 289 290
310 310 311 312 313 313 313 313 314 315 314 313 314 313 313 313 314 315 315 316 306 314 315 304 291 292 291 292 304 317 312 313 312 313 313 313 313 311 306 299 294 298 303 297 289 290 290 301 313 311 310 310 308 308 306 305 303 301 301 301 300 299 297
310 310 309 310 311 311 313 316 315 314 314 313 312 311 311 312 312 313 315 315 315 316 315 314 304 290 294 294 292 314 313 311 311 310 311 311 311 310 307 303 297 289 289 289 289 290 291 293 309 310 310 308 307 304 303 302 300 301 301 300 301 302 302
311 312 311 312 313 313 314 313 313 313 312 311 311 310 311 311 311 312 313 314 314 316 317 315 305 290 292 293 294 296 314 312 311 311 311 309 310 309 307 304 301 290 288 289 289 290 291 291 294 306 305 304 302 299 297 302 298 291 299 300 300 300 301
312 313 312 312 312 311 311 312 311 311 310 310 311 310 311 309 309 309 311 312 314 315 309 302 313 292 291 292 293 289 310 312 310 310 309 310 309 309 307 304 301 292 288 289 289 290 290 291 292 301 297 289 287 289 299 299 301 301 300 300 299 299 299
311 312 313 313 312 311 311 311 311 310 310 309 309 309 310 309 308 308 308 309 311 313 312 305 294 305 290 292 290 293 289 301 296 314 310 308 308 308 307 303 296 289 289 289 289 289 290 290 292 294 287 288 290 287 291 301 300 299 299 299 298 298 298
308 311 312 311 310 310 310 310 310 310 310 309 308 308 308 308 307 306 306 306 308 310 311 310 295 294 298 288 290 290 291 291 292 309 311 309 309 307 306 302 295 288 288 288 288 288 288 290 292 287 288 287 287 289 297 299 298 299 296 296 296 297 298
Wind_Speed
6 6 6 5 4 4 5 5 5 5 4 4 4 4 4 5 5 4 4 4 3 3 2 4 3 3 2 3 4 3 3 3 3 3 2 1 1 2 2 2 2 1 2 2 2 6 3 4 3 3 4 6 6 7 5 5 5 4 4 3 3 4 2
7 7 6 6 6 5 6 4 4 5 5 4 5 5 5 5 5 5 5 5 5 4 3 4 4 4 4 4 3 4 4 4 3 3 2 3 2 1 3 2 2 1 1 1 2 2 2 2 3 3 5 5 6 6 5 4 5 5 5 5 5 5 4
7 7 6 7 6 6 6 5 5 4 4 5 5 5 5 6 5 5 5 6 5 5 5 5 5 5 4 5 5 5 4 4 3 5 5 4 3 3 3 1 2 3 4 2 1 2 3 5 5 6 4 4 5 6 5 5 5 6 6 6 6 6 5
9 9 8 8 7 6 6 6 5 4 4 5 5 4 5 5 6 6 6 6 5 5 5 5 5 5 5 4 4 4 5 4 4 4 4 4 3 3 2 2 2 3 4 3 2 0 1 2 3 4 5 5 6 7 5 5 5 7 7 7 7 7 7
9 8 9 9 8 8 7 6 5 5 6 5 5 5 4 5 5 5 6 6 6 5 5 5 4 4 4 3 4 3 4 4 4 4 4 4 3 3 4 3 3 3 3 3 3 2 2 1 2 4 5 6 7 7 7 6 7 7 8 7 7 7 7
8 9 9 9 8 7 6 6 6 6 6 6 5 5 5 4 5 5 5 6 6 6 5 5 5 5 4 4 5 5 5 5 5 5 5 5 5 4 3 3 3 3 3 3 4 3 2 1 3 4 5 4 6 6 6 6 6 7 7 7 7 7 7
7 8 8 9 8 7 7 7 7 7 6 6 6 5 4 4 5 6 6 6 6 6 6 6 5 5 4 5 6 5 5 5 5 4 5 5 4 4 4 4 5 4 4 4 3 2 2 1 3 3 3 5 4 5 5 6 5 6 7 7 7 7 7
6 6 6 7 7 8 7 7 7 7 7 6 6 5 5 5 5 5 6 6 6 6 6 5 5 5 5 5 6 5 5 5 5 5 5 5 5 6 6 5 4 4 5 5 4 4 3 2 1 2 3 4 4 3 4 5 6 7 6 6 6 7 7
5 5 5 6 6 6 6 6 7 7 7 7 6 6 5 5 5 6 5 6 5 6 6 6 5 5 5 4 5 4 5 3 4 5 4 5 5 5 5 4 4 5 5 5 5 4 4 3 1 3 3 2 3 4 3 4 4 5 4 6 6 7 6
6 6 6 8 7 6 6 6 6 6 8 7 7 6 6 5 5 5 6 6 5 5 5 5 6 5 5 5 5 5 4 4 4 5 4 5 4 4 5 5 4 4 4 4 5 5 4 2 1 0 2 1 1 2 3 4 4 4 4 4 4 6 6
6 6 7 9 8 7 7 6 5 6 7 8 7 6 6 6 6 6 6 6 5 5 4 4 5 5 5 5 5 4 4 3 4 4 4 5 4 4 4 4 4 5 5 4 5 4 4 3 2 1 2 2 2 2 1 2 4 3 4 3 4 5 4
5 5 7 8 8 8 9 8 8 6 7 9 8 8 7 7 6 6 6 6 5 5 5 5 4 4 4 5 4 4 3 2 3 4 4 3 3 3 4 4 4 4 3 4 3 3 3 2 2 1 0 2 0 3 1 3 4 3 2 4 4 4 4
6 6 7 8 7 8 9 9 9 8 8 7 8 9 8 7 7 7 6 6 6 6 5 4 4 4 3 3 3 4 3 2 3 3 3 2 2 3 3 3 3 3 2 2 3 3 3 3 3 3 2 1 2 1 0 1 3 6 2 3 4 4 4
7 6 7 8 8 9 9 9 9 8 7 7 7 8 8 8 8 7 8 7 7 6 6 5 4 3 3 3 3 3 2 2 2 3 3 3 2 2 2 3 3 3 2 2 2 2 2 3 2 2 3 3 3 2 1 3 5 6 4 2 2 3 2
7 7 8 9 8 9 8 8 9 9 8 7 8 7 8 7 7 7 7 7 6 6 6 6 5 3 3 4 3 2 1 2 1 2 1 1 3 1 1 0 3 2 1 2 1 2 3 1 1 3 3 2 4 3 1 3 4 4 5 4 3 3 4
8 9 9 9 10 9 9 8 8 9 8 8 8 8 8 8 8 8 7 7 7 6 6 5 5 4 4 3 2 2 1 1 1 1 2 1 1 3 1 1 1 2 0 1 0 2 1 2 2 2 2 2 3 3 3 2 3 4 5 4 4 4 3
9 9 9 9 10 10 9 8 8 9 9 8 8 8 9 9 9 8 8 8 8 7 6 5 5 4 4 4 2 2 2 2 2 2 1 2 1 2 2 2 2 2 2 2 2 1 2 1 2 2 2 3 3 3 3 2 0 1 2 4 3 3 4
9 9 8 7 10 10 10 9 8 9 8 8 8 8 8 8 8 8 7 8 7 8 7 7 6 5 5 3 2 2 3 3 2 3 3 2 2 3 2 3 3 2 2 3 2 3 1 1 3 2 2 3 3 3 2 2 1 1 2 3 3 2 3
7 8 8 7 9 9 9 9 8 8 8 8 7 7 7 7 7 7 6 6 6 5 4 4 5 4 4 4 4 3 3 3 4 4 3 3 3 3 3 4 4 4 5 4 4 2 1 3 4 4 4 4 3 4 3 2 2 1 2 2 3 3 3
3 2 4 4 6 7 8 8 9 8 8 8 8 8 7 7 7 7 7 6 6 6 5 4 4 3 3 3 4 3 3 3 4 4 4 4 3 3 3 4 4 5 6 5 4 4 5 4 3 5 5 4 4 2 3 4 4 3 3 2 3 3 2
7 7 6 6 5 5 7 7 8 7 7 7 7 7 7 7 6 6 5 5 4 4 4 4 4 3 3 3 3 2 2 2 3 3 3 2 1 1 1 3 4 5 5 6 4 5 6 5 6 6 2 3 5 5 5 4 4 5 4 4 4 3 4
4 4 5 5 6 6 6 7 7 6 4 3 2 4 5 5 5 5 4 4 4 3 3 3 2 2 3 3 2 2 2 3 2 3 4 3 2 2 4 4 4 4 5 9 11 7 5 5 3 5 5 7 7 6 6 5 5 5 6 6 5 5 5
5 4 4 3 6 7 6 6 6 6 6 5 3 3 4 3 4 5 5 4 4 3 2 2 6 7 7 3 1 1 2 3 3 3 3 2 4 4 4 4 4 5 5 4 2 10 7 4 6 5 5 4 5 4 1 7 8 6 6 7 5 5 6
5 6 5 6 5 5 6 5 5 4 4 4 5 5 7 4 3 3 4 4 4 3 3 4 6 5 4 4 3 1 1 1 1 1 2 2 2 4 4 3 3 7 8 7 7 9 6 7 8 7 4 5 5 4 6 8 8 7 5 3 5 3 2
2 2 2 3 3 3 3 4 4 5 5 4 3 4 3 2 1 2 2 4 4 4 5 5 4 4 4 2 4 3 0 0 1 0 0 1 2 2 2 0 1 1 1 1 3 6 8 9 8 6 6 5 5 4 5 3 5 4 5 5 3 4 3
4 3 3 2 2 1 2 3 3 3 4 4 3 3 3 4 4 4 5 6 7 7 6 4 3 6 5 3 1 5 0 1 1 0 1 1 2 1 1 1 1 1 4 5 5 4 2 5 6 3 4 7 7 4 4 6 6 4 2 2 3 4 4
4 3 3 3 5 5 6 5 5 5 5 5 5 4 4 5 6 6 6 7 7 7 6 5 4 4 3 2 3 6 1 1 2 2 1 1 2 2 2 2 2 2 0 3 1 2 2 0 4 5 6 6 5 7 7 8 8 6 1 4 2 2 3
5 4 5 5 5 6 6 6 6 5 6 7 7 7 7 7 6 6 6 6 6 6 4 4 2 4 4 4 6 7 2 1 1 2 1 1 1 1 2 2 2 3 1 4 5 6 3 2 1 3 4 5 6 6 5 5 4 2 2 1 1 1 1
6 6 6 6 6 7 6 6 6 6 6 6 6 6 6 7 7 6 6 6 6 7 4 2 2 3 3 6 8 5 3 2 2 2 2 2 1 1 2 2 1 2 4 5 5 5 6 3 3 3 5 6 6 6 7 6 7 9 8 5 4 4 4
6 7 7 6 6 6 6 7 6 6 6 6 7 6 6 6 6 6 5 5 6 7 6 4 4 5 6 7 8 0 1 2 3 3 3 2 3 5 5 6 3 3 5 5 4 3 2 7 3 4 5 5 5 5 6 5 7 8 8 8 7 6 6
5 5 5 6 6 6 6 5 6 5 6 6 6 6 6 6 5 5 5 5 4 6 6 5 5 5 4 4 7 3 1 2 2 3 3 3 4 5 9 13 11 4 6 6 5 4 5 6 2 2 3 4 4 3 4 4 3 4 5 4 3 2 3
3 4 4 5 4 5 5 5 5 5 5 5 5 6 5 5 5 5 4 4 2 2 7 5 4 4 1 3 5 3 0 1 2 2 3 4 4 6 6 9 13 11 9 7 8 9 9 7 2 2 2 3 4 3 2 2 2 1 1 2 4 5 5
6 6 7 7 7 8 6 6 6 6 6 6 6 6 6 5 6 5 5 6 5 3 6 6 5 3 2 1 4 5 2 1 1 1 2 3 5 6 6 7 8 9 10 10 11 11 12 14 6 3 2 3 3 2 3 2 2 2 2 3 4 4 6
6 6 6 5 6 7 6 7 8 7 7 5 4 4 5 4 4 5 5 5 5 4 2 5 6 4 4 1 2 5 2 1 1 1 1 2 3 5 5 6 6 7 9 11 11 11 12 12 10 5 5 4 5 4 4 1 3 4 4 5 6 6 6
6 6 6 6 7 7 7 7 7 7 7 6 8 8 6 6 6 6 5 5 5 6 3 4 5 5 4 2 0 4 5 1 3 2 1 1 1 3 5 6 6 6 9 11 11 11 11 10 9 6 7 7 4 1 2 2 3 3 4 5 5 5 6
6 6 6 6 7 8 7 8 8 8 8 8 9 9 8 7 6 6 6 6 6 6 6 4 3 3 6 2 3 1 3 6 4 5 2 1 1 3 6 8 8 8 10 10 10 9 9 10 9 7 6 4 2 2 6 4 2 5 5 5 5 6 6
6 7 9 9 10 9 8 8 9 9 9 9 8 8 7 7 7 7 8 7 7 6 6 5 5 3 5 5 5 3 4 5 6 4 4 1 2 5 7 8 9 10 10 11 10 11 11 9 7 6 4 4 5 7 4 3 4 3 4 5 5 5 5
Wind_Direction
135 123 128 120 114 121 119 126 123 115 102 89 92 79 82 75 65 66 58 54 45 59 68 71 54 47 45 62 36 18 18 28 7 2 3 290 291 147 154 187 182 258 274 279 244 293 98 171 120 75 72 59 62 58 41 47 55 69 65 49 83 91 89
129 135 133 134 135 130 129 124 112 108 97 78 80 87 69 68 65 66 61 61 48 47 56 73 53 44 47 52 53 48 39 39 32 24 33 47 47 95 162 192 235 256 238 231 280 264 191 130 202 151 109 103 80 64 59 53 52 57 64 66 65 87 91
141 140 141 137 139 145 133 131 126 123 112 112 99 80 73 67 60 66 73 67 63 49 48 63 81 76 57 62 54 46 35 33 33 27 25 40 57 53 13 78 179 180 188 171 210 210 199 144 197 163 152 138 102 90 86 82 83 73 74 69 70 69 79
150 147 142 146 145 149 144 142 134 116 114 110 107 93 70 69 70 67 68 73 70 55 49 63 60 67 77 75 71 58 41 31 47 56 52 34 45 60 47 53 27 11 15 359 35 148 300 140 127 129 133 113 114 108 91 87 86 80 77 69 61 59 70
157 154 150 150 154 151 149 144 129 127 122 119 114 102 83 74 79 80 78 73 65 59 63 57 49 71 75 73 56 47 67 67 66 71 69 72 49 71 46 34 33 23 14 13 24 14 305 130 146 122 125 124 116 104 112 105 93 87 71 70 75 77 72
166 155 151 150 154 153 154 145 141 130 131 130 118 106 93 94 91 82 74 70 72 65 59 62 69 54 57 64 62 71 58 49 49 38 53 39 33 29 50 33 20 38 43 36 6 12 49 71 109 146 117 122 110 120 126 125 98 78 76 73 67 63 74
169 160 153 152 156 153 149 145 140 133 129 125 124 113 111 101 86 84 82 77 75 76 72 68 62 58 43 75 77 67 66 59 55 60 60 52 47 34 19 35 27 37 31 22 17 6 56 103 137 135 133 113 133 127 132 123 115 102 81 69 65 67 63
167 162 156 151 154 149 144 144 134 136 131 131 128 123 124 110 110 103 97 92 84 78 73 71 71 68 57 66 75 66 59 53 54 51 54 46 51 48 39 36 49 45 19 26 22 4 21 58 102 131 133 134 126 114 111 99 92 77 92 68 64 74 69
163 157 142 143 141 141 141 143 139 137 132 130 128 136 138 133 122 120 115 104 97 88 84 79 73 72 67 69 74 70 69 69 75 62 74 77 62 51 50 34 44 44 30 25 26 30 14 9 59 132 169 161 141 136 132 118 103 84 61 97 83 61 79
162 164 158 151 145 139 144 138 139 141 136 133 135 142 144 139 136 129 121 118 113 103 97 92 90 90 85 78 75 73 68 63 62 66 63 73 70 58 63 48 53 58 53 39 29 31 36 357 8 335 301 295 281 152 163 134 106 108 79 31 87 83 76
174 168 156 153 153 155 153 146 139 152 147 138 142 147 146 142 139 140 133 129 120 116 109 102 94 98 98 90 90 85 78 82 77 71 69 70 67 70 63 59 58 70 51 44 52 34 42 30 357 327 271 326 315 298 180 164 106 78 101 64 53 88 81
174 164 154 154 155 160 161 162 158 163 149 146 147 150 154 152 151 142 134 129 129 128 128 117 121 106 100 104 110 104 110 93 82 80 70 59 61 70 74 78 81 78 67 63 59 61 50 33 57 147 274 275 58 318 41 120 147 90 26 98 73 50 69
173 166 156 154 161 169 172 168 163 165 161 154 152 156 160 159 155 153 146 136 138 136 136 137 128 122 117 107 122 109 103 127 105 105 102 91 91 93 97 83 62 65 61 96 77 60 63 53 20 41 86 138 134 344 311 210 105 122 89 100 108 117 109
171 164 159 161 169 177 177 172 168 163 159 162 157 160 159 162 163 160 153 151 144 143 139 143 143 142 130 120 105 96 125 114 136 101 98 118 113 97 72 87 94 75 38 33 73 89 61 69 63 48 68 105 121 149 165 102 128 127 124 127 154 103 80
167 165 166 169 180 179 179 177 166 162 167 163 165 160 160 160 167 168 157 152 150 147 153 143 151 145 133 130 123 131 138 148 77 98 87 101 102 74 87 83 91 83 33 34 354 198 127 191 154 136 109 111 112 119 124 140 135 146 135 161 152 142 140
170 169 174 179 183 181 180 177 169 165 167 164 169 167 164 170 174 172 166 161 156 155 155 149 149 150 133 141 138 139 160 130 148 136 177 179 196 117 152 177 172 133 158 167 253 4 30 266 293 76 82 85 101 113 121 123 157 141 161 144 163 169 131
175 176 178 187 184 178 176 174 175 174 168 167 168 171 172 178 176 177 174 171 166 166 164 163 165 169 164 154 178 177 184 192 189 211 242 244 225 196 216 211 206 191 200 217 226 222 235 207 255 121 158 124 140 134 116 134 237 213 171 161 179 195 140
182 183 182 188 182 177 174 176 182 182 171 174 175 174 181 182 182 186 186 184 178 178 179 180 178 177 173 184 201 220 231 231 225 230 227 231 228 251 241 263 261 230 202 242 211 251 254 281 261 186 229 161 166 150 169 224 189 211 198 168 150 142 158
183 186 186 193 183 180 175 179 182 185 178 174 169 179 183 182 193 195 193 184 176 183 185 177 182 187 193 185 189 198 215 216 228 240 217 226 232 230 228 237 238 238 235 236 239 232 274 270 288 277 249 252 193 171 218 201 237 225 263 189 183 168 201
158 170 166 191 212 185 182 179 182 183 182 176 173 180 188 191 197 209 211 199 188 182 182 187 200 205 221 206 190 193 203 223 226 228 234 236 247 252 252 239 242 239 240 243 234 228 227 218 265 261 255 249 278 228 221 233 234 226 236 227 210 232 210
152 191 202 191 187 208 187 185 191 184 185 185 186 194 194 196 188 205 200 204 194 182 184 198 203 209 219 204 195 198 204 227 244 227 224 239 235 247 268 264 252 254 249 245 249 236 242 216 212 231 298 299 276 245 243 242 245 253 232 224 256 253 255
177 194 200 184 163 211 198 189 186 173 164 168 207 206 197 193 187 198 195 200 193 189 199 197 194 220 220 212 203 189 208 222 225 234 231 193 133 198 220 237 262 262 29 39 31 359 351 333 246 238 208 220 229 245 254 278 264 247 257 264 256 256 261
181 170 153 191 203 194 190 182 171 151 159 154 115 334 278 206 197 192 196 190 180 180 185 97 41 26 3 344 178 191 191 213 219 220 233 193 169 230 229 226 220 80 66 84 228 249 256 277 302 293 278 201 202 221 231 257 255 263 264 263 261 262 252
141 159 185 180 193 188 183 166 161 158 186 176 153 190 235 222 209 205 207 189 172 170 104 63 38 49 55 355 312 191 179 143 143 176 178 196 179 197 218 217 222 162 170 175 228 246 246 229 222 239 283 310 303 216 222 242 245 259 267 271 292 307 301
175 134 157 158 177 195 191 190 187 182 177 169 169 205 197 197 148 167 162 145 138 110 86 51 30 67 68 49 325 313 301 218 164 189 189 210 172 190 217 199 154 154 184 137 265 213 209 218 221 219 224 246 279 352 33 324 290 242 233 253 250 260 280
168 171 157 142 109 22 259 208 164 138 163 137 131 177 158 156 162 159 148 135 121 110 102 82 57 53 51 54 332 277 100 28 280 358 344 325 334 333 329 316 293 239 117 156 220 235 254 165 151 136 133 112 88 77 75 53 45 14 358 246 252 245 235
148 163 169 159 164 188 197 186 166 160 141 150 149 141 157 151 145 132 121 119 111 103 97 84 84 109 115 139 201 261 72 73 50 45 39 345 314 318 297 292 296 273 76 201 335 326 311 283 152 158 166 187 158 125 117 108 99 81 335 278 277 271 69
122 134 147 156 158 154 155 153 154 151 147 144 143 154 149 133 117 118 121 118 111 99 80 34 78 125 147 174 195 245 90 121 113 119 112 128 289 322 298 286 277 308 7 49 47 357 308 255 174 160 160 156 149 144 103 76 53 58 123 69 29 48 85
125 128 131 133 135 135 138 142 140 144 148 142 137 133 130 129 130 128 127 126 124 114 97 78 116 140 163 197 215 229 135 139 114 97 95 69 41 40 20 346 323 68 68 69 57 22 354 334 154 158 151 143 132 102 77 61 46 37 31 30 32 32 45
136 142 142 144 139 137 140 139 143 148 146 146 146 145 140 141 138 136 139 136 127 125 123 132 162 182 201 229 251 275 111 130 97 100 74 86 82 57 36 9 26 89 87 78 43 11 30 310 153 157 153 156 147 134 122 111 78 60 53 59 62 66 67
152 154 164 163 153 150 157 158 157 165 166 164 163 153 153 149 151 147 145 145 142 138 132 116 147 151 212 262 291 297 148 101 102 104 112 93 88 79 52 27 6 75 86 82 32 13 348 294 210 190 184 187 184 161 128 131 138 113 108 99 94 120 161
196 189 185 167 171 174 173 172 161 172 170 175 166 169 170 160 156 154 148 135 27 205 133 120 113 121 232 273 288 284 318 123 127 124 134 127 116 104 83 56 39 43 62 62 47 39 14 329 222 241 235 239 235 221 104 114 114 134 171 210 200 200 209
270 253 239 224 219 215 186 154 165 194 188 193 179 184 187 176 178 173 155 159 167 195 147 139 125 135 169 232 298 304 306 317 124 149 180 135 139 119 110 98 68 54 73 70 62 50 37 21 29 70 293 278 282 110 99 90 46 339 248 253 275 268 279
247 244 240 211 202 196 188 177 182 190 194 201 180 198 198 192 193 177 173 175 168 170 143 145 131 146 129 226 309 305 278 36 327 172 171 182 160 145 126 98 95 60 64 68 67 63 58 43 26 47 43 58 48 37 333 207 137 239 274 276 267 262 254
251 252 242 214 199 199 198 200 203 202 195 187 176 192 184 199 193 182 174 183 173 164 105 10 138 130 116 123 349 335 311 27 0 301 259 207 205 130 121 120 112 86 81 79 75 71 64 57 50 74 66 75 70 351 281 285 256 237 256 253 268 278 283
250 237 241 244 227 220 212 211 208 211 216 216 210 207 198 191 190 179 182 189 175 168 157 139 21 130 124 118 114 42 6 335 10 288 267 249 244 129 113 110 105 105 98 96 89 86 91 96 85 85 103 103 113 258 268 251 301 287 282 294 296 288 283
244 239 234 233 234 233 227 220 215 216 216 220 217 206 198 192 195 191 188 186 179 170 168 153 113 69 118 108 116 85 78 41 4 313 301 238 180 140 137 122 118 118 104 98 89 78 65 63 91 122 140 177 222 244 262 281 264 281 291 277 273 275 283